Location: Newark
(45.2500°N, 7.5833°E)
Time: 01:00:11
(UTC+00:00)

SR - Pass Details

Date: 02 February 2020
Orbit: 575 x 881 km, 66.7° (Epoch: 20 February)

Event Time Altitude Azimuth Distance (km) Brightness Sun altitude
Rises 19:04:57 0° 191° (S) 3,404 ? -26.1°
Reaches altitude 10° 19:07:28 10° 186° (S) 2,497 ? -26.6°
Enters shadow 19:09:54 25° 173° (S) 1,698 ? -27.0°
